Regional Weather Roundup
Issued by NWS Grand Forks, ND

Home | Current Version | Previous Version | Graphics & Text | Print | Product List | Glossary On
Versions: 1 2 3 4 5 6 7 8 9 10 11 12 13 14 15 16 17 18 19 20 21 22 23 24 25 26 27 28 29 30 31 32 33 34 35 36 37 38 39 40 41 42 43 44 45 46 47 48 49 50
000
ASUS43 KFGF 012331
RWRFGF
PRAIRIE TO PINES  WEATHER ROUNDUP
NATIONAL WEATHER SERVICE EASTERN NORTH DAKOTA/GRAND FORKS ND
600 PM CDT WED APR 01 2015

 **SATELLITE DATA USED TO AUGMENT SKY COVER AT AUTOMATED STATIONS**
 *****  WEATHER ACROSS EASTERN NORTH DAKOTA  *****

CITY           SKY/WX    TMP DP  RH WIND       PRES   REMARKS
GRAND FORKS    PTSUNNY   60  44  55 NW21      29.43R
GRAND FRKS AFB PTSUNNY   60  44  55 W12       29.45R
GRAND FRKS NWS   N/A     57 N/A N/A NW18        N/A
DEVILS LAKE    MOSUNNY   52  37  58 W24G37    29.53R
FARGO          MOSUNNY   66  41  40 NW26G36   29.48R
WAHPETON ARPT  MOCLDY    64  37  36 NW24G33   29.51R
$$

 ***** WEATHER ACROSS CENTRAL AND WESTERN NORTH DAKOTA  *****

CITY           SKY/WX    TMP DP  RH WIND       PRES   REMARKS
BISMARCK       PTSUNNY   60  29  30 NW21G30   29.64R
MINOT          PTSUNNY   55  25  31 W28G35    29.58R
JAMESTOWN      MOSUNNY   62  31  31 NW26G35   29.53R
MINOT AFB      PTSUNNY   53  30  40 NW23G31   29.57R
GARRISON         N/A     55  26  32 NW28G39   29.61R
WILLISTON      PTSUNNY   51  22  31 W24G39    29.67R
DICKINSON      SUNNY     51  18  27 W26G36    29.67R
HETTINGER      MOSUNNY   56  13  18 W31G38    29.72R
$$

 *****  OTHER AIRPORT OBSERVATIONS IN OUR AREA  *****

CITY           SKY/WX    TMP DP  RH WIND       PRES   REMARKS
WALHALLA         N/A     55  45  67 W20G30    29.44R
GRAFTON AIRPOR NOT AVBL
VALLEY CITY AR FAIR      63  34  34 W28G33    29.52R
CANDO          MOCLDY    50  37  62 NW25G37   29.53R
CAVALIER APRT  CLOUDY    57  45  62 W24G35    29.43R
GWINNER        CLEAR     64  34  32 W24G35      N/A
SHEYENNE NWR     N/A     66  38  35 NW18      29.95S
ROLLA          FAIR      48  36  61 NW25G35   29.52R
 ***** THE ABOVE OBSERVATIONS ARE NON NWS ARE NOT QUALITY
       CONTROLLED AND MAY MIS-REPORT RAIN FOR SNOW...
$$

  *****  WEATHER ACROSS NORTHERN MINNESOTA  *****

CITY           SKY/WX    TMP DP  RH WIND       PRES   REMARKS
FLAG ISLAND    CLOUDY    46  34  61 CALM      29.31F
WARROAD        CLOUDY    63  46  55 W17G29    29.34R
ROSEAU         PTSUNNY   61  45  55 W17G25    29.36R
HALLOCK        CLOUDY    55  41  58 NW14      29.40S
THF RVR FALLS  PTSUNNY   59  43  55 W22G28    29.41R
BAUDETTE       CLOUDY    63  41  44 SE5       29.31F
WASKISH        CLOUDY    68  43  40 CALM      29.34S
CROOKSTON      MOSUNNY   61  45  55 NW30G36   29.44R
STEPHEN NDAWN    N/A     57  43  58 NW17        N/A
GREENBUSH NDAW   N/A     55  45  67 W18         N/A
$$
  *****  WEATHER ACROSS CENTRAL AND WEST MINNESOTA  *****

CITY           SKY/WX    TMP DP  RH WIND       PRES   REMARKS
FOSSTON        MOSUNNY   61  37  41 W21G29    29.42R
BEMIDJI        CLOUDY    66  36  32 SW8       29.37R
PARK RAPIDS    CLOUDY    68  36  30 SW20G29   29.40R
ELBOW LAKE     FAIR      64  41  44 NW20      29.49R
WADENA         CLOUDY    64  39  39 W16       29.43S
DETROIT LAKES  PTSUNNY   61  39  44 W18G31    29.48R
MOORHEAD       MOSUNNY   64  39  39 NW25G31   29.50R
FERGUS FALLS   CLOUDY    66  37  34 NW30      29.49R
MORRIS MN      CLOUDY    63  43  48 NW15G21   29.50R
STAPLES        CLOUDY    64  34  32 W16G22    29.43R
$$
  *****  WEATHER ELSEWHERE ACROSS MINNESOTA  *****

CITY           SKY/WX    TMP DP  RH WIND       PRES   REMARKS
DULUTH         CLOUDY    40  31  70 SE16      29.48F
INTRNTL FALLS  PTSUNNY   61  36  39 SE10      29.36F
ELY            CLOUDY    48  32  53 E8        29.45F
CLOQUET        PTSUNNY   39  34  81 E8        29.46F
WHEATON        CLOUDY    64  43  45 W18G30    29.54R
BRAINERD       CLOUDY    70  43  37 W13       29.40F
HIBBING        NOT AVBL
ALEXANDRIA     CLOUDY    63  36  36 W15       29.46S
SAINT CLOUD    LGT RAIN  64  54  69 W8G21     29.42F
MINNEAPOLIS    PTSUNNY   80  35  19 S20G33    29.45F
$$

  *****  WEATHER ACROSS SOUTH DAKOTA  *****

CITY           SKY/WX    TMP DP  RH WIND       PRES   REMARKS
SIOUX FALLS    CLOUDY    71  34  25 NW20      29.51R
BROOKINGS      CLOUDY    64  39  39 NW21G26   29.56R
WATERTOWN      CLOUDY    67  41  38 NW13      29.55R
HURON          CLOUDY    69  37  30 NW25G32   29.58R
SISSETON         N/A     65  41  41 NW29      29.52R
ABERDEEN       MOSUNNY   68  31  25 NW22G30   29.58R
MITCHELL       CLOUDY    70  40  33 NW16      29.59R
PIERRE         MOSUNNY   64  25  22 NW29G37   29.66R
MOBRIDGE       CLOUDY    60  28  29 NW21      29.65R
RAPID CITY     PTSUNNY   54  22  28 NW24G37   29.78R
$$

  *****  SOME WEATHER IN NEARBY STATES *****

CITY           SKY/WX    TMP DP  RH WIND       PRES   REMARKS
GLASGOW MT     MOSUNNY   50  25  37 W23G30    29.72
GREAT FALLS MT PTSUNNY   51   4  14 W26G36    29.81F
CHEYENNE WY    MOSUNNY   56  21  25 NW17G30   29.79R
SCOTTSBLUFF NE CLOUDY    60  34  37 N23       29.74R
OMAHA NE       MOSUNNY   83  46  27 S25G37    29.55F
DES MOINES IA  MOSUNNY   80  44  27 S24G39    29.66F
DAVENPORT IA   SUNNY     75  32  20 S22G38    29.79F
CHICAGO IL     MOSUNNY   71  36  27 S21G28    29.86F
EAU CLAIRE WI  MOSUNNY   78  32  18 S23G35    29.55F
LA CROSSE WI   PTSUNNY   78  32  18 S17G30    29.62F
$$

  *****  SOME NATIONAL WEATHER *****

CITY           SKY/WX    TMP DP  RH WIND       PRES   REMARKS
LA GUARDIA NY  CLEAR     49  19  30 NW16      30.13R
RALEIGH NC     PTCLDY    63  28  26 E5        30.15R
ATLANTA GA     PTSUNNY   77  48  35 W5        30.03S
NEW ORLEANS LA CLOUDY    77  61  57 S13       30.03S
OKLAHOMA CITY  MOSUNNY   78  61  55 S20G29    29.72F
ALBUQUERQUE NM MOSUNNY   74  21  13 W24G32    29.87F
SALT LAKE CITY PTSUNNY   53   8  16 NW13G21   30.03F
LOS ANGELES CA MOSUNNY   66  56  70 W13       29.93F
BOISE ID       MOSUNNY   51  20  29 NW12      30.11F
SEATTLE WA     PTSUNNY   46  43  87 SW18      30.28R
$$

*** WEATHER ACROSS MANITOBA...SASKATCHEWAN AND ONTARIO ***
                ***ONTARIO***

CITY           SKY/WX    TMP DP  RH WIND       PRES   REMARKS
GERALDTON      CLOUDY    30  30 100 SE7G17    29.76S WCI  23
THUNDER BAY    CLOUDY    34  32  93 E18       29.65F WCI  23
SIOUX LOOKOUT  PTSUNNY   45  28  53 SE10G18   29.46S
TORONTO        PTCLDY    41  18  38 S8        30.12F
BIG TROUT LK   CLOUDY    41  25  52 E7        29.64S
PICKLE LAKE    PTSUNNY   34  28  80 SE14G29   29.56F WCI  24
DRYDEN         SUNNY     50  32  50 SE15G21   29.40F
KENORA         PTSUNNY   55  34  44 SE6       29.34
$$
                *** MANITOBA***

CITY           SKY/WX    TMP DP  RH WIND       PRES   REMARKS
BRANDON        PTSUNNY   48  39  71 NW21      29.49R
DAUPHIN        CLOUDY    45  37  76 W23G30    29.45R
ISLAND LAKE    LGT RAIN  36  34  93 NE14G21   29.53F
PILOT MOUND      N/A     48  39  71 W23G31      N/A
THE PAS        LGT SNOW  34  32  93 NE6       29.44R
THOMPSON       LGT SNOW  18  12  79 NE17G30   29.67S DRFTSNOWWCI   2
WINNIPEG       PTSUNNY   54  39  58 W15G21    29.38R
LYNN LAKE      CLOUDY    16  10  79 NE15G21   29.75R WCI   1
CHURCHILL      MOSUNNY    0  -4  85 N14       30.04  WCI -19
GILLAM         CLOUDY    12   7  79 NE16G24   29.80F WCI  -4
$$
                ***SASKATCHEWAN***

CITY           SKY/WX    TMP DP  RH WIND       PRES   REMARKS
ESTEVAN        PTSUNNY   52  23  32 W26G37    29.59S
KINDERSLEY     LGT SNOW  34  32  93 W33G46    29.46  WCI  19
LLOYDMINSTER   SNOWSHWR  32  30  93 N20G31    29.52R VSB 3/4 WCI  20
PRINCE ALBERT  CLOUDY    43  32  65 NW7       29.41R
REGINA         PTSUNNY   48  27  43 W26       29.54S
YORKTON        PTSUNNY   46  32  57 W20G30    29.47R
N. BATTLEFORD  CLOUDY    39  34  81 NW13      29.43R
LA RONGE       LGT SNOW  25  23  93 NE21G32   29.58R VSB 1   WCI  10
SASKATOON      PTSUNNY   43  28  56 W21       29.44F
SWIFT CURRENT  MOSUNNY   48  16  27 W30G38    29.53F
$$
NOTE: THESE ARE AUTOMATED STATIONS WITH LIMITED QUALITY CONTROL
      "FAIR" INDICATES FEW OR NO CLOUDS BELOW 12,000 FEET WITH NO
      SIGNIFICANT WEATHER AND/OR OBSTRUCTIONS TO VISIBILITY.
      SKY/WX - SKY CONDITION AND SIGNIFICANT WEATHER.
      TMP - AIR TEMPERATURE.    DP   - DEWPOINT TEMPERATURE.
      RH  - RELATIVE HUMIDITY.  PRES - PRESSURE.
      HX  - HEAT INDEX.         WCI  - WIND CHILL INDEX.
$


USA.gov is the U.S. government's official web portal to all federal, state and local government web resources and services.